Weather in Mingachevir

Azerbaijan     40°46′14″N   47°03′01″E
temp.,
°C
wind,
m/s
gust,
m/s
humid.,
%
clouds,
%
prec.,
mm/h
press.,
hPa
HPBL,
m
14 june, mon
mon1401:00+23wnw814583 0.0 1009420
04:00+22nw69580 0.0 1009258
07:00+23wnw46590 0.0 1011256
10:00+26nw44460 0.0 1011600
13:00+29nnw32360 0.0 10091054
16:00+31n22300 0.0 10071035
19:00+31nne22310 0.0 1007282
22:00+26se913540 0.0 1010559
15 june, tue
tue1501:00+24se712640 0.0 1009522
04:00+22se37700 0.0 1010267
07:00+23se23690 0.0 1010293
10:00+26nnw12520 0.0 1010929
13:00+29nw43450 0.0 10081149
16:00+31nw32370 0.0 10051114
19:00+32nw33330 0.0 1005563
22:00+28ene22390 0.0 100611
16 june, wed
wed1601:00+26ese59530 0.0 1007219
04:00+24se47600 0.0 1008177
07:00+24se58600 0.0 1009304
10:00+29se67390 0.0 1009779
13:00+34se67260 0.0 10071286
16:00+37se78230 0.0 10041692
19:00+36se89240 0.0 10041886
22:00+30se712370 0.0 1006291
17 june, thu
thu1701:00+25ese47510 0.0 1006126
04:00+23ese46580 0.0 1006104
07:00+24ese34560 0.0 1006169
10:00+30ese24380 0.0 1006688
13:00+35ese26250 0.0 10041813
16:00+37nne15230 0.0 10032057
19:00+36n14230 0.0 10041836
22:00+31nw45350 0.0 100752
18 june, fri
fri1801:00+26wnw1016480 0.0 1008311
04:00+24wnw1015550 0.0 1009339
07:00+24wnw912550 0.0 1011346
10:00+28nw66430 0.0 1011546
13:00+33w13320 0.0 10091443
16:00+36sse47240 0.0 10072355
19:00+36sse69210 0.0 10072299
22:00+30sse813310 0.0 1010326